Location: D�rnast
(49.6426°N, 11.9755°E)
Time: 03:20:19
(UTC+00:00)

Cosmos 1818 - Pass Details

Date: 24 January 2021
Orbit: 773 x 800 km, 65.0° (Epoch: 24 February)

Event Time Altitude Azimuth Distance (km) Brightness Sun altitude
Rises 16:18:40 0° 192° (SSW) 3,265 7.3 -4.3°
Reaches altitude 10° 16:21:12 10° 184° (S) 2,345 6.4 -4.7°
Maximum altitude 16:26:09 38° 117° (ESE) 1,197 4.2 -5.4°
Drops below altitude 10° 16:31:09 10° 51° (NE) 2,375 5.4 -6.2°
Enters shadow 16:32:11 - 48° (NE) 2,743 5.8 -6.3°
